Location: 10033 Water Well
(34.0865°N, 106.8959°W)
Time: 22:34:40
(UTC+00:00)

NOSS 3-4 (A) - Pass Details

Date: 13 January 2026
Orbit: 769 x 1442 km, 63.4° (Epoch: 10 January)

Event Time Altitude Azimuth Distance (km) Brightness Sun altitude
Rises 00:36:57 0° 197° (SSW) 3,243 6.9 -4.3°
Reaches altitude 10° 00:39:22 10° 192° (SSW) 2,302 6.0 -4.7°
Maximum altitude 00:44:24 53° 116° (ESE) 944 3.3 -5.7°
Drops below altitude 10° 00:49:40 10° 40° (NE) 2,408 5.0 -6.7°
Enters shadow 00:51:17 - 37° (NE) 3,032 5.6 -7.0°
